EW0259 Weather Reports


time (UTC)temp
F
wind
direction
speed
knots
gust
knots
rain 1hr
in
rain 24hr
in
rain mn
in
humidity
%
barometer
mb
20260508214724 59 276 1.7 10.4 0.00 0.00 0.00 57 1022.9
20260508214232 59 298 4.3 8.7 0.00 0.00 0.00 57 1022.9
20260508213740 59 327 1.7 9.6 0.00 0.00 0.00 57 1022.8
20260508213228 59 246 4.3 9.6 0.00 0.00 0.00 57 1022.8
20260508212735 59 330 2.6 9.6 0.00 0.00 0.00 56 1022.9
20260508212223 60 279 0.9 7.0 0.00 0.00 0.00 58 1022.8
20260508211735 59 259 2.6 7.0 0.00 0.00 0.00 57 1022.7
20260508211223 60 286 1.7 5.2 0.00 0.00 0.00 56 1022.7
20260508210811 60 183 0.9 4.3 0.00 0.00 0.00 57 1022.6
20260508210308 59 304 1.7 7.0 0.00 0.00 0.00 58 1022.6
20260508205723 60 259 1.7 6.1 0.00 0.00 0.00 56 1022.6
20260508205230 59 115 0.9 6.1 0.00 0.00 0.00 56 1022.5
20260508204758 59 246 0.9 6.1 0.00 0.00 0.00 57 1022.4
20260508204234 59 24 0.9 6.1 0.00 0.00 0.00 57 1022.3
20260508203722 59 207 0.9 3.5 0.00 0.00 0.00 58 1022.3
20260508203230 58 99 1.7 3.5 0.00 0.00 0.00 58 1022.4
20260508202737 58 103 0.9 4.3 0.00 0.00 0.00 59 1022.5
20260508202225 58 281 2.6 5.2 0.00 0.00 0.00 60 1022.4
20260508201753 57 233 1.7 8.7 0.00 0.00 0.00 60 1022.5
20260508201230 58 288 2.6 8.7 0.00 0.00 0.00 59 1022.5
20260508200722 58 65 2.6 7.0 0.00 0.00 0.00 58 1022.6
20260508200230 58 9 1.7 3.5 0.00 0.00 0.00 57 1022.6
20260508195756 58 9 1.7 6.1 0.00 0.00 0.00 59 1022.5
20260508195253 58 19 3.5 6.1 0.00 0.00 0.00 59 1022.4
20260508194809 58 360 2.6 5.2 0.00 0.00 0.00 58 1022.3
20260508194225 58 21 1.7 7.0 0.00 0.00 0.00 58 1022.3
20260508193733 58 284 3.5 10.4 0.00 0.00 0.00 59 1022.2
20260508193241 58 336 3.5 10.4 0.00 0.00 0.00 59 1022.2
20260508192808 58 130 1.7 5.2 0.00 0.00 0.00 61 1022.3
20260508192736 58 130 1.7 5.2 0.00 0.00 0.00 61 1022.3
20260508192306 57 318 1.7 6.1 0.00 0.00 0.00 63 1022.2
20260508192232 57 318 1.7 6.1 0.00 0.00 0.00 63 1022.2
20260508191740 56 261 2.6 8.7 0.00 0.00 0.00 62 1022.2
20260508191307 56 338 0.9 8.7 0.00 0.00 0.00 66 1022.2
20260508191236 56 338 0.9 8.7 0.00 0.00 0.00 66 1022.2
20260508190800 55 248 0.9 8.7 0.00 0.00 0.00 67 1022.3
20260508190237 55 314 0.9 8.7 0.00 0.00 0.00 68 1022.3
20260508185803 55 158 1.7 4.3 0.00 0.00 0.00 67 1022.3
20260508185240 55 83 0.9 4.3 0.00 0.00 0.00 68 1022.3
20260508184728 55 40 1.7 6.1 0.00 0.00 0.00 68 1022.3
20260508184236 55 100 1.7 6.1 0.00 0.00 0.00 67 1022.2
20260508183728 55 293 0.9 6.1 0.00 0.00 0.00 66 1022.4
20260508183255 55 293 0.9 5.2 0.00 0.00 0.00 67 1022.1
20260508182807 55 320 1.7 4.3 0.00 0.00 0.00 67 1022.2
20260508182306 55 303 0.0 2.6 0.00 0.00 0.00 68 1022.2
20260508181724 54 169 0.0 6.1 0.00 0.00 0.00 69 1021.9
20260508181232 54 314 0.9 4.3 0.00 0.00 0.00 69 1021.9
20260508180800 55 254 1.7 4.3 0.00 0.00 0.00 69 1021.8
20260508180236 54 109 0.9 4.3 0.00 0.00 0.00 71 1021.8
20260508175803 54 17 0.9 3.5 0.00 0.00 0.00 72 1021.8
20260508175239 53 325 0.9 3.5 0.00 0.00 0.00 72 1021.8
20260508174727 53 272 1.7 6.1 0.00 0.00 0.00 72 1021.8
20260508174235 54 302 2.6 6.1 0.00 0.00 0.00 72 1021.8
20260508173723 54 320 0.9 2.6 0.00 0.00 0.00 72 1021.6
20260508173231 54 54 0.9 3.5 0.00 0.00 0.00 72 1021.5
20260508172738 54 87 0.9 3.5 0.00 0.00 0.00 72 1021.4
20260508172230 54 5 1.7 3.5 0.00 0.00 0.00 72 1021.2
20260508171738 53 250 0.9 5.2 0.00 0.00 0.00 74 1021.1
20260508171306 53 184 2.6 5.2 0.00 0.00 0.00 74 1021.1
20260508170722 53 196 1.7 4.3 0.00 0.00 0.00 74 1021.2
20260508170309 52 69 0.9 2.6 0.00 0.00 0.00 75 1021.1
20260508165805 52 75 0.9 2.6 0.00 0.00 0.00 75 1021.0
20260508165733 52 75 0.9 2.6 0.00 0.00 0.00 75 1021.0
20260508165221 52 123 0.9 3.5 0.00 0.00 0.00 75 1020.9
20260508164729 52 106 0.9 2.6 0.00 0.00 0.00 77 1020.8
20260508164237 52 136 0.0 2.6 0.00 0.00 0.00 76 1020.8
20260508163725 52 65 0.9 3.5 0.00 0.00 0.00 76 1020.9
20260508163232 52 113 0.9 3.5 0.00 0.00 0.00 76 1020.6
20260508162759 53 171 0.9 3.5 0.00 0.00 0.00 76 1020.8
20260508162236 52 355 0.9 3.5 0.00 0.00 0.00 76 1020.7
20260508161724 52 168 0.9 2.6 0.00 0.00 0.00 75 1020.7
20260508161236 52 59 1.7 7.0 0.00 0.00 0.00 77 1020.6
20260508160724 52 121 1.7 7.0 0.00 0.00 0.00 77 1020.6
20260508160232 52 118 0.9 1.7 0.00 0.00 0.00 77 1020.5
20260508155739 52 174 0.9 2.6 0.00 0.00 0.00 77 1020.7
20260508155226 52 82 0.9 5.2 0.00 0.00 0.00 77 1020.6
20260508154754 52 59 0.9 5.2 0.00 0.00 0.00 78 1020.5
20260508154231 52 61 0.0 5.2 0.00 0.00 0.00 79 1020.6
20260508153739 52 92 1.7 5.2 0.00 0.00 0.00 79 1020.7
20260508153227 52 188 1.7 6.1 0.00 0.00 0.00 78 1020.9
20260508152734 51 90 0.9 6.1 0.00 0.00 0.00 80 1021.1
20260508152226 51 167 0.0 2.6 0.00 0.00 0.00 81 1021.0
20260508151734 51 181 0.9 2.6 0.00 0.00 0.00 80 1021.1
20260508151222 51 132 0.0 2.6 0.00 0.00 0.00 83 1021.1
20260508150730 51 92 0.9 2.6 0.00 0.00 0.00 83 1021.0
20260508150238 50 56 0.0 2.6 0.00 0.00 0.00 85 1020.9
20260508145805 50 180 0.9 3.5 0.00 0.00 0.00 86 1020.8
20260508145306 50 122 0.0 2.6 0.00 0.00 0.00 87 1020.8
20260508144739 49 172 0.9 2.6 0.00 0.00 0.00 87 1020.8
20260508144226 49 114 0.0 1.7 0.00 0.00 0.00 89 1020.8
20260508143734 49 101 0.0 1.7 0.00 0.00 0.00 90 1020.7
20260508143222 48 49 0.9 1.7 0.00 0.00 0.00 90 1020.6
20260508142808 48 46 0.0 1.7 0.00 0.00 0.00 91 1020.4
20260508142306 48 82 0.0 1.7 0.00 0.00 0.00 91 1020.4
20260508142233 48 82 0.0 1.7 0.00 0.00 0.00 91 1020.4
20260508141801 48 69 0.0 1.7 0.00 0.00 0.00 91 1020.3
20260508141729 48 69 0.0 1.7 0.00 0.00 0.00 91 1020.3
20260508141237 47 149 0.0 1.7 0.00 0.00 0.00 92 1020.3
20260508140805 47 151 0.0 1.7 0.00 0.00 0.00 92 1020.1
20260508140733 47 151 0.0 1.7 0.00 0.00 0.00 92 1020.1
20260508140224 47 140 0.0 1.7 0.00 0.00 0.00 92 1019.9
20260508135807 47 5 0.0 0.0 0.00 0.00 0.00 92 1019.8
20260508135306 47 5 0.0 0.0 0.00 0.00 0.00 93 1019.7
20260508134725 47 5 0.0 0.0 0.00 0.00 0.00 93 1019.6
20260508134233 46 5 0.0 0.0 0.00 0.00 0.00 93 1019.5
20260508133721 46 5 0.0 0.0 0.00 0.00 0.00 92 1019.5
20260508133228 46 5 0.0 0.0 0.00 0.00 0.00 92 1019.5
20260508132735 46 5 0.0 0.0 0.00 0.00 0.00 93 1019.4
20260508132306 46 5 0.0 0.0 0.00 0.00 0.00 93 1019.3
20260508131739 46 346 0.0 0.0 0.00 0.00 0.00 92 1019.2
20260508131306 46 346 0.0 0.0 0.00 0.00 0.00 92 1019.2
20260508130723 46 346 0.0 0.0 0.00 0.00 0.00 93 1019.2
20260508130231 47 346 0.0 0.0 0.00 0.00 0.00 93 1019.1
20260508125738 47 346 0.0 0.0 0.00 0.00 0.00 94 1019.0
20260508125230 46 346 0.0 0.0 0.00 0.00 0.00 93 1019.0
20260508124758 46 346 0.0 0.0 0.00 0.00 0.00 94 1019.0
20260508124726 46 346 0.0 0.0 0.00 0.00 0.00 94 1019.0
20260508124254 46 346 0.0 0.0 0.00 0.00 0.00 94 1018.9
20260508124222 46 346 0.0 0.0 0.00 0.00 0.00 94 1018.9
20260508123806 46 346 0.0 0.0 0.00 0.00 0.00 94 1018.9
20260508123227 46 346 0.0 0.0 0.00 0.00 0.00 93 1018.9
20260508122754 46 346 0.0 0.0 0.00 0.00 0.00 93 1018.9
20260508122722 46 346 0.0 0.0 0.00 0.00 0.00 93 1018.9
20260508122310 46 346 0.0 0.0 0.00 0.00 0.00 93 1018.8
20260508122238 46 346 0.0 0.0 0.00 0.00 0.00 93 1018.8
20260508121726 46 346 0.0 0.0 0.00 0.00 0.00 93 1018.8
20260508121234 46 346 0.0 0.0 0.00 0.00 0.00 92 1018.8
20260508120722 46 346 0.0 0.0 0.00 0.00 0.00 92 1018.7
20260508120230 46 346 0.0 0.0 0.00 0.00 0.00 92 1018.7
20260508115757 46 346 0.0 0.0 0.00 0.00 0.00 93 1018.6
20260508115234 46 346 0.0 0.0 0.00 0.00 0.00 93 1018.6
20260508114802 46 346 0.0 0.0 0.00 0.00 0.00 93 1018.6
20260508114239 46 346 0.0 0.0 0.00 0.00 0.00 93 1018.5
20260508113727 46 345 0.0 0.0 0.00 0.00 0.00 92 1018.5
20260508113235 46 346 0.0 0.0 0.00 0.00 0.00 93 1018.3
20260508112726 46 346 0.0 0.0 0.00 0.00 0.00 93 1018.2
20260508112234 46 346 0.0 0.0 0.00 0.00 0.00 93 1018.2
20260508111722 45 346 0.0 0.0 0.00 0.00 0.00 92 1018.2
20260508111310 45 346 0.0 0.0 0.00 0.00 0.00 92 1017.9
20260508110727 45 346 0.0 0.0 0.00 0.00 0.00 92 1017.9
20260508110235 45 346 0.0 0.0 0.00 0.00 0.00 91 1017.8
20260508105721 46 346 0.0 0.0 0.00 0.00 0.00 91 1017.7
20260508105309 46 346 0.0 0.0 0.00 0.00 0.00 91 1017.7
20260508104724 46 346 0.0 0.0 0.00 0.00 0.00 91 1017.7
20260508104232 46 346 0.0 0.0 0.00 0.00 0.00 92 1017.6
20260508103800 46 346 0.0 0.0 0.00 0.00 0.00 92 1017.6
20260508103256 46 346 0.0 0.0 0.00 0.00 0.00 92 1017.6
20260508102752 46 346 0.0 0.0 0.00 0.00 0.00 92 1017.6
20260508102229 46 346 0.0 0.0 0.00 0.00 0.00 92 1017.5
20260508101756 46 346 0.0 0.0 0.00 0.00 0.00 92 1017.6
20260508101233 46 346 0.0 0.0 0.00 0.00 0.00 92 1017.6
20260508100725 46 346 0.0 0.0 0.00 0.00 0.00 92 1017.5
20260508100309 46 346 0.0 0.0 0.00 0.00 0.00 91 1017.6
20260508095804 46 346 0.0 0.0 0.00 0.00 0.00 91 1017.5
20260508095732 46 346 0.0 0.0 0.00 0.00 0.00 91 1017.5
20260508095224 46 346 0.0 0.0 0.00 0.00 0.00 90 1017.5
20260508094812 46 346 0.0 0.0 0.00 0.00 0.00 90 1017.5
20260508094228 46 346 0.0 0.0 0.00 0.00 0.00 91 1017.4
20260508093755 46 346 0.0 0.0 0.00 0.00 0.00 91 1017.6
20260508093724 46 346 0.0 0.0 0.00 0.00 0.00 91 1017.6
20260508093232 46 346 0.0 0.0 0.00 0.00 0.00 91 1017.5
20260508092758 47 346 0.0 0.0 0.00 0.00 0.00 90 1017.6
20260508092727 47 346 0.0 0.0 0.00 0.00 0.00 90 1017.6
20260508092313 47 346 0.0 0.0 0.00 0.00 0.00 90 1017.6
20260508091727 47 346 0.0 0.0 0.00 0.00 0.00 90 1017.5
20260508091235 47 346 0.0 0.0 0.00 0.00 0.00 90 1017.5
20260508090723 47 346 0.0 0.0 0.00 0.00 0.00 90 1017.6
20260508090311 47 346 0.0 0.0 0.00 0.00 0.00 90 1017.6
20260508090239 47 346 0.0 0.0 0.00 0.00 0.00 90 1017.6
20260508085805 47 346 0.0 0.0 0.00 0.00 0.00 90 1017.6
20260508085222 47 346 0.0 0.0 0.00 0.00 0.00 90 1017.5
20260508084730 47 346 0.0 0.0 0.00 0.00 0.00 89 1017.4
20260508084258 47 346 0.0 0.0 0.00 0.00 0.00 88 1017.5
20260508083734 48 346 0.0 0.0 0.00 0.00 0.00 88 1017.5
20260508083222 48 346 0.0 0.0 0.00 0.00 0.00 87 1017.5
20260508082808 48 346 0.0 1.7 0.00 0.00 0.00 87 1017.5
20260508082229 48 313 0.0 1.7 0.00 0.00 0.00 88 1017.5
20260508081737 49 313 0.0 0.0 0.00 0.00 0.00 89 1017.5
20260508081225 49 313 0.0 0.0 0.00 0.00 0.00 89 1017.5
20260508080733 49 313 0.0 0.0 0.00 0.00 0.00 89 1017.5
20260508080241 49 313 0.0 0.0 0.00 0.00 0.00 88 1017.5
20260508075808 49 313 0.0 0.0 0.00 0.00 0.00 88 1017.4
20260508075736 49 313 0.0 0.0 0.00 0.00 0.00 88 1017.4
20260508075224 49 313 0.0 0.0 0.00 0.00 0.00 89 1017.5
20260508074811 49 313 0.0 0.0 0.00 0.00 0.00 89 1017.5
20260508074228 49 313 0.0 0.0 0.00 0.00 0.00 89 1017.5
20260508073756 49 313 0.0 0.0 0.00 0.00 0.00 89 1017.5
20260508073232 49 313 0.0 0.0 0.00 0.00 0.00 89 1017.5
20260508072739 49 313 0.0 0.0 0.00 0.00 0.00 89 1017.5
20260508072227 49 313 0.0 0.0 0.00 0.00 0.00 89 1017.6
20260508071739 49 313 0.0 0.0 0.00 0.00 0.00 89 1017.5
20260508071227 49 313 0.0 0.0 0.00 0.00 0.00 88 1017.5
20260508070735 49 313 0.0 0.0 0.00 0.00 0.00 89 1017.5
20260508070303 49 313 0.0 0.0 0.00 0.00 0.00 89 1017.6
20260508070231 49 313 0.0 0.0 0.00 0.00 0.00 89 1017.6
20260508065735 49 313 0.0 0.0 0.00 0.00 0.00 89 1017.6
20260508065223 49 313 0.0 0.0 0.00 0.00 0.00 89 1017.7
20260508064731 48 313 0.0 0.0 0.00 0.00 0.00 88 1017.7
20260508064239 48 313 0.0 0.0 0.00 0.00 0.00 88 1017.7
20260508063727 49 313 0.0 0.0 0.00 0.00 0.00 87 1017.7
20260508063255 49 313 0.0 0.0 0.00 0.00 0.00 86 1017.6
20260508063223 49 313 0.0 0.0 0.00 0.00 0.00 86 1017.6
20260508062810 49 313 0.0 0.0 0.00 0.00 0.00 86 1017.6
20260508062738 49 313 0.0 0.0 0.00 0.00 0.00 86 1017.6
20260508062307 49 313 0.0 0.0 0.00 0.00 0.00 86 1017.6
20260508061723 49 313 0.0 0.0 0.00 0.00 0.00 86 1017.7
20260508061230 49 313 0.0 0.0 0.00 0.00 0.00 85 1017.7
20260508060722 49 313 0.0 0.0 0.00 0.00 0.00 85 1017.7
20260508060310 50 313 0.0 0.0 0.00 0.00 0.00 85 1017.7
20260508055725 50 313 0.0 0.0 0.00 0.00 0.00 84 1017.7
20260508055232 50 313 0.0 0.0 0.00 0.00 0.00 84 1017.8
20260508054740 50 313 0.0 0.0 0.00 0.00 0.00 83 1017.9
20260508054228 51 313 0.0 0.0 0.00 0.00 0.00 83 1017.9
20260508053736 51 313 0.0 0.0 0.00 0.00 0.00 83 1017.9
20260508053224 51 313 0.0 0.0 0.00 0.00 0.00 82 1018.0
20260508052731 51 313 0.0 0.0 0.00 0.00 0.00 82 1017.9
20260508052259 51 313 0.0 0.0 0.00 0.00 0.00 81 1017.7
20260508051756 52 313 0.0 0.0 0.00 0.00 0.00 81 1017.7
20260508051232 52 313 0.0 0.0 0.00 0.00 0.00 81 1017.9
20260508050724 52 313 0.0 0.0 0.00 0.00 0.00 80 1017.8
20260508050308 52 313 0.0 0.0 0.00 0.00 0.00 80 1017.9
20260508050236 52 313 0.0 0.0 0.00 0.00 0.00 80 1017.9
20260508045727 52 313 0.0 0.0 0.00 0.00 0.00 79 1017.9
20260508045235 53 313 0.0 0.0 0.00 0.00 0.00 78 1017.9
20260508044723 53 313 0.0 0.0 0.00 0.00 0.00 77 1017.9
20260508044310 53 313 0.0 0.0 0.00 0.00 0.00 77 1018.0
20260508044239 53 313 0.0 0.0 0.00 0.00 0.00 77 1018.0
20260508043727 54 313 0.0 0.0 0.00 0.00 0.00 76 1018.1
20260508043235 54 313 0.0 0.0 0.00 0.00 0.00 76 1018.1
20260508042722 54 313 0.0 0.0 0.00 0.00 0.00 75 1018.0
20260508042230 54 313 0.0 0.0 0.00 0.00 0.00 75 1018.1
20260508041738 55 313 0.0 0.0 0.00 0.00 0.00 74 1018.1
20260508041305 55 313 0.0 0.0 0.00 0.00 0.00 73 1018.1
20260508040722 55 313 0.0 0.0 0.00 0.00 0.00 73 1018.1
20260508040310 56 313 0.0 0.0 0.00 0.00 0.00 72 1018.0
20260508035729 56 313 0.0 0.0 0.00 0.00 0.00 70 1017.9
20260508035237 57 313 0.0 0.0 0.00 0.00 0.00 70 1017.8
20260508034805 57 313 0.0 0.0 0.00 0.00 0.00 69 1017.6
20260508034302 57 313 0.0 0.0 0.00 0.00 0.00 68 1017.7
20260508034230 57 313 0.0 0.0 0.00 0.00 0.00 68 1017.7
20260508033738 58 313 0.0 0.0 0.00 0.00 0.00 69 1017.8
20260508033226 58 313 0.0 0.0 0.00 0.00 0.00 67 1017.8
20260508032730 58 313 0.0 0.0 0.00 0.00 0.00 66 1018.0
20260508032238 59 313 0.0 0.0 0.00 0.00 0.00 66 1018.0
20260508031726 59 313 0.0 0.0 0.00 0.00 0.00 65 1018.0
20260508031234 60 313 0.0 0.0 0.00 0.00 0.00 64 1017.9
20260508030722 60 313 0.0 0.0 0.00 0.00 0.00 63 1017.8
20260508030230 60 313 0.0 0.0 0.00 0.00 0.00 63 1017.8
20260508025721 61 313 0.0 0.0 0.00 0.00 0.00 62 1017.8
20260508025228 61 313 0.0 0.0 0.00 0.00 0.00 62 1018.0
20260508024756 62 313 0.0 0.0 0.00 0.00 0.00 60 1018.0
20260508024232 62 313 0.0 0.9 0.00 0.00 0.00 60 1018.1
20260508023759 62 313 0.0 0.9 0.00 0.00 0.00 58 1018.1
20260508023256 63 321 0.0 1.7 0.00 0.00 0.00 57 1018.1
20260508022731 63 321 0.0 1.7 0.00 0.00 0.00 56 1018.2
20260508022239 63 321 0.0 2.6 0.00 0.00 0.00 55 1018.1
20260508021727 64 323 1.7 2.6 0.00 0.00 0.00 54 1018.2
20260508021235 64 320 0.0 1.7 0.00 0.00 0.00 54 1018.2
20260508020803 64 282 0.0 1.7 0.00 0.00 0.00 53 1018.2
20260508020731 64 282 0.0 1.7 0.00 0.00 0.00 53 1018.2
20260508020239 64 279 0.0 1.7 0.00 0.00 0.00 53 1018.3
20260508015726 64 284 0.0 1.7 0.00 0.00 0.00 54 1018.3
20260508015234 64 344 0.9 1.7 0.00 0.00 0.00 54 1018.2
20260508014726 64 327 0.0 1.7 0.00 0.00 0.00 54 1018.3
20260508014233 64 291 0.0 3.5 0.00 0.00 0.00 54 1018.4
20260508013721 64 326 1.7 3.5 0.00 0.00 0.00 54 1018.4
20260508013229 65 34 0.9 3.5 0.00 0.00 0.00 54 1018.4
20260508012736 65 38 0.9 6.1 0.00 0.00 0.00 54 1018.5
20260508012307 65 333 2.6 6.1 0.00 0.00 0.00 53 1018.4
20260508012233 65 333 2.6 6.1 0.00 0.00 0.00 53 1018.4
20260508011740 65 290 1.7 3.5 0.00 0.00 0.00 53 1018.4
20260508011228 65 223 0.9 2.6 0.00 0.00 0.00 53 1018.5
20260508010756 65 252 0.9 2.6 0.00 0.00 0.00 54 1018.7
20260508010312 65 332 0.9 4.3 0.00 0.00 0.00 53 1018.8
20260508005808 65 5 0.9 4.3 0.00 0.00 0.00 53 1018.9
20260508005224 65 338 0.9 2.6 0.00 0.00 0.00 54 1019.0
20260508004732 65 22 0.9 3.5 0.00 0.00 0.00 53 1018.9
20260508004300 65 313 0.9 3.5 0.00 0.00 0.00 52 1018.9
20260508003757 65 329 0.9 5.2 0.00 0.00 0.00 53 1019.0
20260508003233 65 273 1.7 6.1 0.00 0.00 0.00 53 1019.1
20260508002724 65 299 0.9 2.6 0.00 0.00 0.00 52 1019.1
20260508002232 65 346 0.9 3.5 0.00 0.00 0.00 52 1019.1
20260508001740 65 355 1.7 4.3 0.00 0.00 0.00 53 1019.0
20260508001228 65 348 0.9 4.3 0.00 0.00 0.00 52 1019.0
20260508000736 65 252 0.9 4.3 0.00 0.00 0.00 52 1019.0
20260508000224 65 335 1.7 4.3 0.00 0.00 0.00 52 1019.1
20260507235731 65 299 0.9 4.3 0.00 0.00 0.00 53 1019.1
20260507235239 66 281 1.7 4.3 0.00 0.00 0.00 52 1019.1
20260507234727 65 281 1.7 3.5 0.00 0.00 0.00 52 1019.1
20260507234239 65 146 0.9 4.3 0.00 0.00 0.00 52 1019.1
20260507233727 65 44 2.6 3.5 0.00 0.00 0.00 52 1019.1
20260507233235 65 319 1.7 3.5 0.00 0.00 0.00 50 1019.2
20260507232722 65 324 0.9 2.6 0.00 0.00 0.00 52 1019.2
20260507232310 65 296 0.9 5.2 0.00 0.00 0.00 52 1019.2
20260507231806 65 261 2.6 5.2 0.00 0.00 0.00 53 1019.2
20260507231223 65 271 0.0 3.5 0.00 0.00 0.00 53 1019.3
20260507230811 65 205 0.9 3.5 0.00 0.00 0.00 52 1019.4
20260507230308 65 92 0.0 2.6 0.00 0.00 0.00 52 1019.5
20260507225723 65 9 0.9 2.6 0.00 0.00 0.00 53 1019.5
20260507225311 65 355 1.7 2.6 0.00 0.00 0.00 52 1019.5
20260507224727 65 333 0.9 5.2 0.00 0.00 0.00 53 1019.7
20260507224255 64 307 1.7 5.2 0.00 0.00 0.00 53 1019.6
20260507224223 64 307 1.7 5.2 0.00 0.00 0.00 53 1019.6
20260507223731 65 231 0.9 6.1 0.00 0.00 0.00 53 1019.6
20260507223239 65 261 1.7 6.1 0.00 0.00 0.00 54 1019.5
20260507222806 65 148 0.9 2.6 0.00 0.00 0.00 53 1019.7
20260507222734 65 148 0.9 2.6 0.00 0.00 0.00 53 1019.7
20260507222222 64 50 0.9 3.5 0.00 0.00 0.00 55 1019.7
20260507221734 63 55 0.9 3.5 0.00 0.00 0.00 55 1019.8
20260507221222 63 171 0.9 2.6 0.00 0.00 0.00 58 1019.9
20260507220810 62 320 0.0 3.5 0.00 0.00 0.00 58 1019.8
20260507220227 62 102 0.9 3.5 0.00 0.00 0.00 56 1019.8
20260507215754 63 309 1.7 3.5 0.00 0.00 0.00 57 1019.9
20260507215230 62 178 0.9 4.3 0.00 0.00 0.00 60 1020.0
20260507214738 61 286 1.7 5.2 0.00 0.00 0.00 59 1020.0